Flag for Chad Weather past 2 weeks in Ndjamena, Chad

Now
86 °F

Passing clouds.


Feels Like: 84 °F
Forecast: 54 / 85 °F
Wind: 7 mph from North

Location: Ndjamena

Current Time: Dec 25, 2014 at 4:05:42 PM

Latest Report: Dec 25, 2014 at 3:00 PM


Visibility: N/A

Pressure: 29.95 "Hg

Humidity: 29%

Dew point: 50 °F

Location of NdjamenaLocation

Historic Weather in Ndjamena — Graph

°F

Ndjamena temperature yesterday

Maximum temperature yesterday: 86 °F (at 3:00 PM)
Minimum temperature yesterday: 64 °F (at 8:00 AM)
Average temperature yesterday: 76 °F

Past Weeks' High & Low Weather Summary

 TemperatureHumidityPressure
High97 °F (Dec 10, 3:00 PM)73% (Dec 11, 4:00 AM)30.07 "Hg (Dec 11, 4:00 AM)
Low55 °F (Dec 19, 5:00 AM)20% (Dec 18, 4:00 PM)29.74 "Hg (Dec 10, 4:00 PM)
Average76 °F38%29.93 "Hg
* Reported Dec 10 3:00 PM — Dec 25 3:00 PM, Ndjamena, Weather by CustomWeather, © 2014

Note: Actual official high and low records may vary slightly from our data, if they occured in-between our weather recording intervals... More about our weather records

Advertising

Ndjamena weather history for previous 24 hours

 ConditionsComfort  
Time TempWeatherWind HumidityBarometerVisibility
3:00 PM
Dec 25
86 °FPassing clouds.7 mph29%29.95 "HgN/A
2:00 PM84 °FPassing clouds.7 mph33%29.95 "HgN/A
12:00 PM81 °FClear.10 mph37%30.01 "Hg4 mi
11:00 AM77 °FClear.13 mph39%30.04 "Hg4 mi
10:00 AM73 °FClear.12 mph44%30.07 "Hg4 mi
9:00 AM70 °FDuststorm.14 mph46%30.07 "Hg3 mi
8:00 AM64 °FDuststorm.13 mph52%30.04 "Hg3 mi
7:00 AM55 °FDuststorm.5 mph63%30.04 "Hg3 mi
6:00 AM55 °FDuststorm.7 mph59%30.01 "Hg2 mi
5:00 AM57 °FDuststorm.7 mph55%30.01 "Hg2 mi
4:00 AM59 °FDuststorm.7 mph51%30.01 "Hg2 mi
2:00 AM63 °FDuststorm.7 mph45%30.01 "Hg2 mi
1:00 AM64 °FClear.7 mph46%30.01 "Hg4 mi
12:00 AM66 °FClear.9 mph43%30.01 "Hg4 mi
11:00 PM
Dec 24
68 °FClear.12 mph43%30.01 "Hg4 mi
10:00 PM70 °FClear.8 mph40%30.01 "Hg4 mi
9:00 PM72 °FClear.3 mph38%30.01 "Hg4 mi
8:00 PM73 °FClear.7 mph38%30.01 "Hg4 mi
7:00 PM75 °FDuststorm.5 mph34%29.98 "Hg3 mi
6:00 PM77 °FClear.1 mph32%29.95 "Hg4 mi
5:00 PM82 °FClear.8 mph28%29.92 "Hg4 mi
4:00 PM84 °FClear.2 mph29%29.92 "Hg4 mi
Weather by CustomWeather, © 2014

See weather overviewHow to use our weather pages